STARLINK-36833, 68109

Orbit data source: Space-Track

STARLINK-36833, 68109 is a payload satellite owned by SpaceX/Seattle (US) in SSO that was launched on Sun, 08 Mar 2026 UTC via an FALCON 9 launch vehicle from the Air Force Western Test Range (AFWTR). Payload-class satellites include a variety of spacecraft equipped with specific instruments for various scientific and technological missions. These include communications satellites like Starlink; space stations such as the ISS; scientific satellites like the Hubble; Earth observation satellites from companies like Planet Labs, Umbra, and HawkEye 360; GPS; miniature CubeSats for education and research; and military/defense satellites.

Loading next visibility...
Identifier
68109, 2026-044J
Orbit
SSO
Country
Flag of USUS
Related business
Manufacturer
SpaceX/Seattle
Mission
Operational spacecraft
Bus & Motor
STARLINK V2MO, Unknown motor
Mass
575 kg wet, ~530 kg dry
Launch date (UTC)
2026-03-08 (1 month ago)
Launch vehicle
FALCON 9
Launch site
Air Force Western Test Range (AFWTR)
Object type
Payload
Rocket body
Debris
Shape & HBR
Unknown shape, 17.7 m
Radar Cross Section
RCS unknown

Expand to show TLE details & history
Last TLE update: 1 day ago

TLE from 1 day ago
0 STARLINK-36833
1 68109U 26044J   26104.39020761  .00012669  00000-0  39412-3 0  9997
2 68109  97.2846  65.5803 0001738  96.8617 263.2824 15.33442772  7052
Epoch: 2026-04-14T09:21Z
TLE epoch observation values (Epoch: 2026-04-14T09:21:53.937Z)
Latitude
0.00002°
Longitude
82.53841°
Altitude
468.801 km
Speed
7.632 km/s
True Right ascension
04h 22m 19s
True Declination
0° 00' 00"
Sunlit
Object was in daylight at epoch
Visualization orbit readout
Latitude
Unknown
Longitude
Unknown
Altitude
Unknown
Speed
Unknown
Apparent Right ascension
Unknown
Apparent Declination
Unknown
Sunlit
N/A
Visualization observer readout
Local Sidereal Time
20:27:13
Azimuth
Unknown
Elevation
Unknown
Doppler factor
Unknown
Orbital elements
Apogee altitude
463.681 km
Perigee altitude
461.304 km
Semi-major axis
6,840.63 km
Eccentricity
0.00017
Inclination
97.2846°
RAAN
65.5803°
Arg. of periapsis
96.8617°
True anomaly
263.26262°
Mean anomaly
263.2824°
Eccentric anomaly
263.27251°
Mean motion
3.83618 °/min
Orbital period
93.84 mins
BSTAR
0.00039412
Loading maneuver chart data...
Computing Atmospheric mass density...
Loading historical data...
Loading historical data...
Loading historical data...
Loading historical data...
Loading historical data...
Loading historical data...
Loading historical data...

Documentation

Showing up to 5 results
|